K3HW Weather Reports


time (UTC)temp
C
wind
direction
speed
KPH
gust
KPH
rain 1hr
cm
rain 24hr
cm
rain mn
cm
humidity
%
barometer
mb
20260506004221 23 306 0.0 0.0 0.00 0.00 0.00 46 1012.9
20260506003717 23 116 0.0 0.0 0.00 0.00 0.00 45 1013.0
20260506003213 23 85 0.0 0.0 0.00 0.00 0.00 47 1012.5
20260506002709 23 118 0.0 0.0 0.00 0.00 0.00 45 1012.9
20260506002206 24 109 0.0 0.0 0.00 0.00 0.00 45 1012.6
20260506001702 23 45 0.0 0.0 0.00 0.00 0.00 44 1012.6
20260506001159 24 44 0.0 0.0 0.00 0.00 0.00 43 1012.4
20260506000656 25 64 0.0 0.0 0.00 0.00 0.00 41 1012.7
20260506000153 25 25 0.0 0.0 0.00 0.00 0.00 40 1012.4
20260505235652 25 82 0.0 0.0 0.00 0.00 0.00 42 1012.4
20260505235149 25 21 0.0 0.0 0.00 0.00 0.00 41 1012.5
20260505234645 25 147 0.0 0.0 0.00 0.00 0.00 41 1012.3
20260505234142 25 269 0.0 0.0 0.00 0.00 0.00 40 1012.2
20260505233639 25 56 0.0 0.0 0.00 0.00 0.00 41 1012.4
20260505233137 25 257 0.0 0.0 0.00 0.00 0.00 41 1012.4
20260505232634 25 140 0.0 0.0 0.00 0.00 0.00 40 1012.2
20260505232132 25 57 0.0 0.0 0.00 0.00 0.00 40 1012.3
20260505231628 25 6 0.0 0.0 0.00 0.00 0.00 40 1012.4
20260505231127 25 46 0.0 0.0 0.00 0.00 0.00 39 1012.3
20260505230625 25 182 0.0 0.0 0.00 0.00 0.00 39 1012.3
20260505230120 25 200 0.0 0.0 0.00 0.00 0.00 39 1012.2
20260505225617 25 48 0.0 0.0 0.00 0.00 0.00 39 1012.3
20260505225113 26 40 0.0 0.0 0.00 0.00 0.00 39 1012.3
20260505224610 26 211 0.0 0.0 0.00 0.00 0.00 38 1012.2
20260505224108 26 101 0.0 0.0 0.00 0.00 0.00 37 1012.4
20260505223605 26 22 0.0 0.0 0.00 0.00 0.00 38 1012.4
20260505223101 26 245 0.0 0.0 0.00 0.00 0.00 37 1012.1
20260505222557 26 12 0.0 0.0 0.00 0.00 0.00 37 1012.2
20260505222053 26 121 0.0 0.0 0.00 0.00 0.00 36 1012.0
20260505221551 27 179 0.0 0.0 0.00 0.00 0.00 36 1012.2
20260505221047 27 227 0.0 0.0 0.00 0.00 0.00 36 1012.2
20260505220544 27 7 0.0 0.0 0.00 0.00 0.00 36 1012.2
20260505220042 27 60 0.0 0.0 0.00 0.00 0.00 37 1012.0
20260505215540 27 255 0.0 0.0 0.00 0.00 0.00 35 1012.1
20260505215038 27 267 0.0 0.0 0.00 0.00 0.00 35 1011.9
20260505214536 27 257 0.0 0.0 0.00 0.00 0.00 36 1012.1
20260505214032 27 155 0.0 0.0 0.00 0.00 0.00 34 1012.2
20260505213530 27 19 0.0 0.0 0.00 0.00 0.00 35 1012.1
20260505213026 27 122 0.0 0.0 0.00 0.00 0.00 34 1012.1
20260505212522 27 167 0.0 0.0 0.00 0.00 0.00 36 1011.9
20260505212020 27 145 4.8 6.4 0.00 0.00 0.00 34 1012.1
20260505211517 27 117 6.4 11.3 0.00 0.00 0.00 34 1012.2
20260505211014 27 355 3.2 4.8 0.00 0.00 0.00 34 1011.8
20260505210510 27 56 3.2 4.8 0.00 0.00 0.00 33 1011.9
20260505210008 27 254 9.7 11.3 0.00 0.00 0.00 32 1012.2
20260505205506 27 296 4.8 9.7 0.00 0.00 0.00 33 1012.1
20260505205002 27 32 11.3 17.7 0.00 0.00 0.00 33 1012.1
20260505204500 27 77 8.0 11.3 0.00 0.00 0.00 33 1012.1
20260505203957 27 221 4.8 6.4 0.00 0.00 0.00 34 1012.0
20260505203453 27 194 3.2 3.2 0.00 0.00 0.00 35 1012.2
20260505202950 27 87 6.4 6.4 0.00 0.00 0.00 35 1012.0
20260505202447 27 110 1.6 1.6 0.00 0.00 0.00 35 1012.0
20260505201942 27 201 6.4 9.7 0.00 0.00 0.00 33 1012.1
20260505201440 27 56 4.8 4.8 0.00 0.00 0.00 34 1012.2
20260505200937 27 113 1.6 3.2 0.00 0.00 0.00 35 1012.4
20260505200435 27 232 9.7 16.1 0.00 0.00 0.00 34 1012.2
20260505195930 27 219 6.4 6.4 0.00 0.00 0.00 34 1012.3
20260505195428 27 155 6.4 6.4 0.00 0.00 0.00 35 1012.4
20260505194925 27 267 6.4 11.3 0.00 0.00 0.00 34 1012.3
20260505194422 27 204 8.0 11.3 0.00 0.00 0.00 34 1012.4
20260505193922 27 148 4.8 6.4 0.00 0.00 0.00 33 1012.4
20260505193420 27 239 8.0 14.5 0.00 0.00 0.00 33 1012.5
20260505192918 27 284 3.2 6.4 0.00 0.00 0.00 34 1012.4
20260505192416 27 176 8.0 11.3 0.00 0.00 0.00 32 1012.6
20260505191913 27 177 12.9 17.7 0.00 0.00 0.00 31 1012.6
20260505191412 27 186 4.8 9.7 0.00 0.00 0.00 32 1012.8
20260505190908 27 13 4.8 4.8 0.00 0.00 0.00 35 1012.6
20260505190403 27 173 8.0 12.9 0.00 0.00 0.00 33 1012.6
20260505185859 27 319 6.4 9.7 0.00 0.00 0.00 38 1012.8
20260505185356 27 196 12.9 16.1 0.00 0.00 0.00 32 1013.0
20260505184852 27 194 8.0 11.3 0.00 0.00 0.00 36 1013.1
20260505184349 27 7 6.4 6.4 0.00 0.00 0.00 36 1013.1
20260505183846 27 138 4.8 4.8 0.00 0.00 0.00 34 1013.1
20260505183343 27 229 6.4 11.3 0.00 0.00 0.00 38 1013.2
20260505182840 27 301 6.4 9.7 0.00 0.00 0.00 35 1013.2
20260505182337 27 217 6.4 11.3 0.00 0.00 0.00 34 1013.0
20260505181833 27 226 3.2 6.4 0.00 0.00 0.00 38 1013.0
20260505181331 27 227 3.2 3.2 0.00 0.00 0.00 36 1013.4
20260505180827 27 295 9.7 12.9 0.00 0.00 0.00 36 1013.3
20260505180324 27 165 6.4 14.5 0.00 0.00 0.00 38 1013.4
20260505175820 27 296 6.4 6.4 0.00 0.00 0.00 38 1013.4
20260505175317 27 62 3.2 4.8 0.00 0.00 0.00 37 1013.5
20260505174813 27 57 4.8 6.4 0.00 0.00 0.00 37 1013.4
20260505174311 27 195 6.4 9.7 0.00 0.00 0.00 40 1013.5
20260505173806 27 29 3.2 3.2 0.00 0.00 0.00 41 1013.4
20260505173303 27 62 3.2 4.8 0.00 0.00 0.00 39 1013.3
20260505172800 27 211 9.7 14.5 0.00 0.00 0.00 40 1013.3
20260505172257 27 337 6.4 11.3 0.00 0.00 0.00 43 1013.5
20260505171752 27 194 6.4 9.7 0.00 0.00 0.00 42 1013.5
20260505171249 27 161 3.2 4.8 0.00 0.00 0.00 41 1013.5
20260505170746 27 277 4.8 6.4 0.00 0.00 0.00 41 1013.5
20260505170244 27 199 8.0 14.5 0.00 0.00 0.00 39 1013.6
20260505165744 27 110 4.8 6.4 0.00 0.00 0.00 41 1013.7
20260505165240 27 271 6.4 9.7 0.00 0.00 0.00 39 1013.7
20260505164736 27 357 3.2 4.8 0.00 0.00 0.00 40 1013.6
20260505164233 27 283 4.8 6.4 0.00 0.00 0.00 40 1013.9
20260505163731 27 252 3.2 4.8 0.00 0.00 0.00 39 1014.0
20260505163230 27 324 3.2 6.4 0.00 0.00 0.00 42 1013.9
20260505162726 27 29 3.2 3.2 0.00 0.00 0.00 42 1013.7
20260505162223 26 0 6.4 14.5 0.00 0.00 0.00 41 1013.9
20260505161720 27 351 4.8 4.8 0.00 0.00 0.00 43 1013.9
20260505161218 27 340 1.6 1.6 0.00 0.00 0.00 42 1014.0
20260505160715 27 47 3.2 3.2 0.00 0.00 0.00 40 1014.0
20260505160213 26 29 1.6 1.6 0.00 0.00 0.00 41 1014.1
20260505153152 26 355 6.4 11.3 0.00 0.00 0.00 42 1014.2
20260505152649 26 267 3.2 3.2 0.00 0.00 0.00 43 1014.3
20260505152144 26 207 4.8 4.8 0.00 0.00 0.00 43 1014.1
20260505151640 26 28 1.6 3.2 0.00 0.00 0.00 44 1014.4
20260505151137 26 272 8.0 9.7 0.00 0.00 0.00 45 1014.2
20260505150633 25 36 1.6 1.6 0.00 0.00 0.00 45 1014.2
20260505150131 25 353 4.8 6.4 0.00 0.00 0.00 46 1014.2
20260505140559 22 134 3.2 3.2 0.00 0.00 0.00 51 1014.6
20260505125012 19 30 1.6 1.6 0.00 0.00 0.00 59 1015.1
20260505124509 18 56 0.0 0.0 0.00 0.00 0.00 59 1014.9
20260505124005 18 50 1.6 3.2 0.00 0.00 0.00 59 1015.1
20260505123502 18 134 3.2 4.8 0.00 0.00 0.00 59 1015.2
20260505122958 18 6 3.2 3.2 0.00 0.00 0.00 60 1015.1
20260505122455 18 160 3.2 4.8 0.00 0.00 0.00 60 1014.9
20260505121952 18 10 0.0 1.6 0.00 0.00 0.00 60 1014.7
20260505121449 18 42 1.6 1.6 0.00 0.00 0.00 60 1014.6
20260505120945 17 39 1.6 1.6 0.00 0.00 0.00 61 1014.7
20260505120442 17 21 1.6 1.6 0.00 0.00 0.00 61 1014.6
20260505115941 17 159 3.2 4.8 0.00 0.00 0.00 61 1014.7
20260505115437 17 39 0.0 0.0 0.00 0.00 0.00 62 1014.7
20260505114935 17 50 1.6 1.6 0.00 0.00 0.00 62 1014.5
20260505114431 17 24 0.0 1.6 0.00 0.00 0.00 62 1014.7
20260505113928 17 32 1.6 1.6 0.00 0.00 0.00 63 1014.6
20260505113425 17 29 1.6 1.6 0.00 0.00 0.00 63 1014.8
20260505112920 17 34 0.0 0.0 0.00 0.00 0.00 64 1014.5
20260505112418 16 39 0.0 0.0 0.00 0.00 0.00 64 1014.4
20260505111914 16 38 0.0 0.0 0.00 0.00 0.00 66 1014.6
20260505111409 16 37 0.0 0.0 0.00 0.00 0.00 66 1014.4
20260505110905 15 47 0.0 0.0 0.00 0.00 0.00 67 1014.5
20260505110402 14 37 0.0 0.0 0.00 0.00 0.00 71 1014.3
20260505101833 12 39 0.0 0.0 0.00 0.00 0.00 76 1014.2
20260505101328 12 37 0.0 0.0 0.00 0.00 0.00 76 1014.1
20260505100824 12 38 0.0 0.0 0.00 0.00 0.00 76 1014.1
20260505100321 12 43 0.0 0.0 0.00 0.00 0.00 76 1014.1
20260505095816 12 40 0.0 0.0 0.00 0.00 0.00 75 1013.7
20260505095314 12 42 0.0 0.0 0.00 0.00 0.00 74 1014.0
20260505094810 13 36 0.0 0.0 0.00 0.00 0.00 73 1014.0
20260505094307 13 37 0.0 0.0 0.00 0.00 0.00 72 1013.9
20260505093802 13 39 0.0 0.0 0.00 0.00 0.00 72 1013.7
20260505093300 13 37 0.0 0.0 0.00 0.00 0.00 71 1013.6
20260505092757 13 39 0.0 0.0 0.00 0.00 0.00 71 1013.9
20260505092255 13 39 0.0 0.0 0.00 0.00 0.00 70 1013.5
20260505091752 13 37 0.0 0.0 0.00 0.00 0.00 70 1013.7
20260505091250 13 35 0.0 0.0 0.00 0.00 0.00 70 1013.7
20260505090748 13 36 0.0 0.0 0.00 0.00 0.00 70 1013.7
20260505090246 13 36 0.0 0.0 0.00 0.00 0.00 69 1013.7
20260505085743 13 38 0.0 0.0 0.00 0.00 0.00 69 1013.6
20260505085241 14 39 0.0 0.0 0.00 0.00 0.00 68 1013.4
20260505084738 14 42 0.0 0.0 0.00 0.00 0.00 68 1013.4
20260505084238 14 49 0.0 0.0 0.00 0.00 0.00 67 1013.2
20260505083734 14 37 0.0 0.0 0.00 0.00 0.00 67 1013.6
20260505083230 15 37 0.0 0.0 0.00 0.00 0.00 67 1013.7
20260505082726 15 36 0.0 0.0 0.00 0.00 0.00 66 1013.7
20260505082224 15 39 0.0 1.6 0.00 0.00 0.00 66 1013.9
20260505081719 15 39 0.0 0.0 0.00 0.00 0.00 66 1013.5
20260505081217 15 41 0.0 0.0 0.00 0.00 0.00 65 1013.7
20260505080714 15 37 0.0 0.0 0.00 0.00 0.00 65 1013.5
20260505080210 15 40 0.0 0.0 0.00 0.00 0.00 64 1013.6
20260505075706 15 39 0.0 0.0 0.00 0.00 0.00 64 1013.6
20260505075203 16 39 0.0 0.0 0.00 0.00 0.00 63 1013.7
20260505074700 15 51 0.0 0.0 0.00 0.00 0.00 63 1013.7
20260505074157 15 41 0.0 0.0 0.00 0.00 0.00 63 1013.9
20260505073655 16 39 0.0 0.0 0.00 0.00 0.00 62 1013.6
20260505073153 16 37 0.0 0.0 0.00 0.00 0.00 62 1013.7
20260505072648 16 36 0.0 0.0 0.00 0.00 0.00 62 1013.5
20260505072145 16 7 1.6 1.6 0.00 0.00 0.00 61 1013.5
20260505071640 16 40 0.0 0.0 0.00 0.00 0.00 62 1013.5
20260505071138 16 38 0.0 1.6 0.00 0.00 0.00 61 1013.6
20260505070635 16 40 0.0 1.6 0.00 0.00 0.00 61 1013.7
20260505070131 16 40 0.0 0.0 0.00 0.00 0.00 60 1013.6
20260505065627 16 61 0.0 1.6 0.00 0.00 0.00 61 1013.6
20260505065124 16 38 0.0 0.0 0.00 0.00 0.00 61 1013.5
20260505064621 16 349 4.8 6.4 0.00 0.00 0.00 61 1013.7
20260505064120 16 27 1.6 1.6 0.00 0.00 0.00 61 1013.6
20260505063617 16 29 0.0 0.0 0.00 0.00 0.00 61 1013.7
20260505063112 16 36 0.0 0.0 0.00 0.00 0.00 61 1013.5
20260505062609 16 8 1.6 1.6 0.00 0.00 0.00 61 1013.7
20260505062106 16 29 1.6 3.2 0.00 0.00 0.00 61 1013.7
20260505061603 16 52 0.0 0.0 0.00 0.00 0.00 61 1013.7
20260505061101 15 37 0.0 0.0 0.00 0.00 0.00 62 1013.4
20260505060559 15 38 0.0 0.0 0.00 0.00 0.00 61 1013.6
20260505060055 15 32 0.0 1.6 0.00 0.00 0.00 61 1013.6
20260505055550 15 39 0.0 0.0 0.00 0.00 0.00 61 1013.7
20260505055048 16 37 0.0 0.0 0.00 0.00 0.00 60 1013.9
20260505054545 16 38 1.6 1.6 0.00 0.00 0.00 60 1013.6
20260505054043 15 333 1.6 3.2 0.00 0.00 0.00 61 1013.7
20260505053539 15 41 0.0 0.0 0.00 0.00 0.00 60 1013.5
20260505053036 16 42 0.0 0.0 0.00 0.00 0.00 59 1013.5
20260505052533 16 40 0.0 1.6 0.00 0.00 0.00 59 1013.5
20260505052031 16 52 0.0 0.0 0.00 0.00 0.00 59 1013.6
20260505051527 16 34 1.6 1.6 0.00 0.00 0.00 58 1013.9
20260505051026 16 47 0.0 1.6 0.00 0.00 0.00 58 1013.7
20260505050524 16 51 1.6 1.6 0.00 0.00 0.00 57 1013.7
20260505041451 17 58 1.6 3.2 0.00 0.00 0.00 54 1013.6
20260505040948 17 49 0.0 1.6 0.00 0.00 0.00 54 1013.6
20260505040446 16 52 1.6 1.6 0.00 0.00 0.00 54 1013.6
20260505035942 17 43 1.6 1.6 0.00 0.00 0.00 54 1013.6
20260505035438 17 38 1.6 1.6 0.00 0.00 0.00 54 1013.7
20260505034936 17 37 0.0 0.0 0.00 0.00 0.00 53 1013.4
20260505034432 17 42 0.0 1.6 0.00 0.00 0.00 52 1013.5
20260505033929 17 52 0.0 0.0 0.00 0.00 0.00 51 1013.4
20260505033426 17 117 3.2 4.8 0.00 0.00 0.00 50 1013.4
20260505032924 17 61 0.0 1.6 0.00 0.00 0.00 52 1013.4
20260505032421 17 65 0.0 0.0 0.00 0.00 0.00 50 1013.6
20260505031918 17 90 0.0 1.6 0.00 0.00 0.00 50 1013.6
20260505031414 17 22 1.6 1.6 0.00 0.00 0.00 51 1013.4
20260505030912 16 46 0.0 0.0 0.00 0.00 0.00 52 1013.6
20260505030407 17 35 0.0 0.0 0.00 0.00 0.00 52 1013.5
20260505025903 17 48 0.0 0.0 0.00 0.00 0.00 52 1013.5
20260505025401 17 50 0.0 0.0 0.00 0.00 0.00 51 1013.6
20260505024859 17 35 0.0 0.0 0.00 0.00 0.00 51 1013.6
20260505024356 17 44 0.0 0.0 0.00 0.00 0.00 51 1013.7
20260505023853 17 35 0.0 1.6 0.00 0.00 0.00 51 1013.9
20260505023350 16 53 1.6 1.6 0.00 0.00 0.00 52 1013.7
20260505022848 16 40 0.0 0.0 0.00 0.00 0.00 53 1014.0
20260505022344 16 43 0.0 0.0 0.00 0.00 0.00 54 1013.9
20260505021842 16 41 0.0 0.0 0.00 0.00 0.00 53 1013.7
20260505021338 17 40 0.0 0.0 0.00 0.00 0.00 52 1013.9
20260505020834 17 47 0.0 0.0 0.00 0.00 0.00 52 1014.0
20260505020330 17 40 1.6 1.6 0.00 0.00 0.00 51 1013.9
20260505015827 16 42 0.0 0.0 0.00 0.00 0.00 54 1013.6
20260505015324 16 40 0.0 0.0 0.00 0.00 0.00 54 1013.9
20260505014821 16 42 0.0 0.0 0.00 0.00 0.00 52 1013.9
20260505014318 16 21 0.0 0.0 0.00 0.00 0.00 51 1014.0
20260505013814 16 37 0.0 0.0 0.00 0.00 0.00 53 1013.9
20260505013312 15 41 0.0 0.0 0.00 0.00 0.00 59 1014.0
20260505012810 15 40 0.0 0.0 0.00 0.00 0.00 57 1014.0
20260505012308 15 41 0.0 0.0 0.00 0.00 0.00 58 1014.0
20260505011803 15 41 0.0 0.0 0.00 0.00 0.00 57 1014.0
20260505011300 15 38 0.0 0.0 0.00 0.00 0.00 57 1013.6
20260505010756 16 41 0.0 0.0 0.00 0.00 0.00 56 1013.7
20260505010252 16 39 0.0 0.0 0.00 0.00 0.00 54 1013.7
20260505005748 16 41 0.0 0.0 0.00 0.00 0.00 52 1013.4
20260505005246 16 40 0.0 0.0 0.00 0.00 0.00 52 1013.4
20260505004743 17 39 0.0 0.0 0.00 0.00 0.00 51 1013.5